Back to catalog

IRIDIUM 33 DEB

AlivePO
NORAD 36490·DEBRIS·🇺🇸 United States

Launched Sep 14, 1997 from Baikonur Cosmodrome

Loading…

Next Passes (next 24 hours)

TLE

FreshSource: Space-Track

Epoch: Sep 13, 2026, 10:02 UTC

1 36490U 97051WG  26256.41841113  .00007253  00000-0  90802-3 0  9997
2 36490  86.3588 245.8278 0004331 123.2967 236.8670 14.82138565905468

Track IRIDIUM 33 DEB in real time with AllMySat

Download on the App Store